User: anonymous
Location: Observatorio Las Palmas
(29.0667°N, 110.9333°W)
Time: 21:14:59
(UTC-07:00)
Language:

Skynet4D Del rocket - Orbit

View from above orbital plane
View from above orbital plane
View from above satellite
View from above satellite

Ground track
Ground track

The orbit data is extracted from the following two-line orbital elements,

1 25135U 98002B   14241.06611821  .00000137  00000-0  15946-4 0  2085
2 25135 026.8854 174.7342 0356492 284.3035 179.8441 13.62255770828890
Epoch (UTC): 29 August 2014 01:35:12
Eccentricity: 0.0356492
inclination: 26.8854°
perigee height: 763 km
apogee height: 1291 km
right ascension of ascending node: 174.7342°
argument of perigee: 284.3035°
revolutions per day: 13.62255770
mean anomaly at epoch: 179.8441°
orbit number at epoch: 82889

The dashed part of the orbit path shows where the satellite is in the earth's shadow,  

DLR